This demonstration page uses our WeatherBlox Daily Observations layout. Learn more.

Hourly Observations for December 23, 2017

Temp ( °F °C ) Dew Point ( °F °C ) Humidity (%) Winds ( mph kmh ) Pressure ( in mb ) Visibility ( mi km ) Precip ( " mm )
12:17 am 00:17 Mostly Cloudy 20 -6.7 15 -9.4 81 81 N 12 19 30.36 1028 10 16.0934 0 0
12:54 am 00:54 Cloudy 22 -5.6 17 -8.3 82 82 N 10 17 30.28 1025 10 16.0934 0 0
1:47 am 01:47 Partly Cloudy 21 -6.1 17 -8.3 85 85 N 8 13 30.36 1028 10 16.0934 0 0
1:54 am 01:54 Mostly Clear 20 -6.7 16 -8.9 85 85 N 8 13 30.28 1025 10 16.0934 0 0
2:54 am 02:54 Clear 21 -6.1 16 -8.9 81 81 NW 6 9 30.3 1026 10 16.0934 0 0
3:38 am 03:38 Mostly Cloudy 18 -7.8 13 -10.6 81 81 Calm 30.36 1028 10 16.0934 0 0
3:54 am 03:54 Cloudy 21 -6.1 16 -8.9 81 81 Calm 30.3 1026 10 16.0934 0 0
4:13 am 04:13 Cloudy 21 -6.1 17 -8.3 85 85 Calm 30.36 1028 10 16.0934 0 0
4:54 am 04:54 Cloudy 22 -5.6 18 -7.8 85 85 N 5 7 30.3 1026 9 14.48406 0 0
5:54 am 05:54 Cloudy 21 -6.1 16 -8.9 81 81 NNW 14 22 30.32 1027 10 16.0934 0 0
6:54 am 06:54 Mostly Cloudy 19 -7.2 12 -11.1 74 74 NNW 16 26 30.34 1028 10 16.0934 0 0
7:10 am 07:10 Mostly Cloudy 18 -7.8 11 -11.7 74 74 NNW 13 20 30.39 1029 10 16.0934 0 0
7:54 am 07:54 Cloudy 17 -8.3 10 -12.2 74 74 N 13 20 30.35 1028 10 16.0934 0 0
8:54 am 08:54 Cloudy 18 -7.8 10 -12.2 71 71 N 15 24 30.35 1028 10 16.0934 0 0
9:54 am 09:54 Cloudy 19 -7.2 10 -12.2 68 68 NNE 13 20 30.37 1028 10 16.0934 0 0
10:54 am 10:54 Cloudy 20 -6.7 10 -12.2 65 65 N 8 13 30.4 1029 10 16.0934 0 0
11:54 am 11:54 Cloudy with Light Snow 20 -6.7 12 -11.1 71 71 N 9 15 30.39 1029 4 6.43736 0 0.0254
12:54 pm 12:54 Cloudy with Light Snow 22 -5.6 13 -10.6 68 68 N 8 13 30.36 1028 5 8.0467 0 0.0254
1:11 pm 13:11 Cloudy with Light Snow 22 -5.6 13 -10.6 68 68 NNE 8 13 30.39 1029 4 6.43736 0 0.0254
1:54 pm 13:54 Cloudy 22 -5.6 12 -11.1 66 66 NE 8 13 30.33 1027 9 14.48406 0 0.0254
2:54 pm 14:54 Cloudy 23 -5 13 -10.6 65 65 NNE 8 13 30.32 1027 10 16.0934 0 0
3:22 pm 15:22 Cloudy 22 -5.6 12 -11.1 66 66 NE 7 11 30.39 1029 10 16.0934 0 0
3:54 pm 15:54 Cloudy 22 -5.6 12 -11.1 66 66 NE 7 11 30.33 1027 10 16.0934 0 0
4:10 pm 16:10 Cloudy 22 -5.6 12 -11.1 66 66 NE 7 11 30.39 1029 10 16.0934 0 0
4:33 pm 16:33 Cloudy 22 -5.6 12 -11.1 66 66 NE 6 9 30.39 1029 10 16.0934 0 0
4:40 pm 16:40 Cloudy 22 -5.6 12 -11.1 66 66 ENE 5 7 30.39 1029 10 16.0934 0 0
4:54 pm 16:54 Cloudy 21 -6.1 12 -11.1 68 68 NE 7 11 30.32 1027 10 16.0934 0 0
5:21 pm 17:21 Cloudy 21 -6.1 12 -11.1 68 68 NE 8 13 30.39 1029 10 16.0934 0 0
5:54 pm 17:54 Cloudy 21 -6.1 13 -10.6 71 71 NE 6 9 30.32 1027 10 16.0934 0 0
6:54 pm 18:54 Cloudy 21 -6.1 13 -10.6 71 71 NE 9 15 30.31 1026 10 16.0934 0 0
7:54 pm 19:54 Cloudy with Light Snow 20 -6.7 14 -10 78 78 NNE 9 15 30.31 1027 4 6.43736 0 0.0254
8:51 pm 20:51 Cloudy with Light Snow 19 -7 16 -9 86 86 NE 6 9 30.39 1029 1.75 2.816345 0 0.0254
8:54 pm 20:54 Cloudy with Light Snow 20 -6.7 15 -9.4 81 81 NE 6 9 30.32 1027 1.25 2.011675 0 0.0254
9:04 pm 21:04 Mostly Cloudy with Scattered Snow Showers 20 -6.7 16 -8.9 85 85 NE 5 7 30.39 1029 1 1.60934 0.01 0.254
9:14 pm 21:14 Mostly Cloudy with Scattered Snow Showers 20 -6.7 16 -8.9 85 85 NNE 5 7 30.39 1029 1 1.60934 0.01 0.254
9:38 pm 21:38 Mostly Cloudy with Scattered Snow Showers 20 -6.7 17 -8.3 89 89 NE 5 7 30.39 1029 0.75 1.207005 0.03 0.762
9:54 pm 21:54 Mostly Cloudy with Scattered Snow Showers 20 -6.7 17 -8.3 89 89 N 6 9 30.33 1027 0.75 1.207005 0.04 1.016
10:03 pm 22:03 Mostly Cloudy with Scattered Snow Showers 20 -6.7 17 -8.3 89 89 N 8 13 30.39 1029 1 1.60934 0 0.0254
10:20 pm 22:20 Mostly Cloudy with Scattered Snow Showers 20 -6.7 17 -8.3 89 89 NNE 5 7 30.39 1029 1 1.60934 0.02 0.508
10:30 pm 22:30 Cloudy with Light Snow 20 -6.7 17 -8.3 89 89 N 6 9 30.39 1029 2 3.21868 0.02 0.508
10:44 pm 22:44 Cloudy with Light Snow 20 -6.7 17 -8.3 89 89 N 8 13 30.39 1029 1.5 2.41401 0.02 0.508
10:54 pm 22:54 Mostly Cloudy with Scattered Snow Showers 19 -7.2 16 -8.9 88 88 N 10 17 30.35 1028 1 1.60934 0.03 0.762
11:54 pm 23:54 Mostly Cloudy with Scattered Snow Showers 19 -7.2 16 -8.9 88 88 N 8 13 30.35 1028 0.75 1.207005 0.03 0.762

Powered by AerisWeather